Flag for South Korea Weather past 2 weeks in Incheon, South Korea

Now
30 °F

Clear.


Feels Like: 30 °F
Forecast: 26 / 46 °F
Wind: 1 mph from Northwest

Location: Incheon International Airport

Current Time: Mar 7, 2015 at 1:35:59 AM

Latest Report: Mar 7, 2015 at 1:00 AM


Visibility: 10 mi

Pressure: 30.21 "Hg

Humidity: 80%

Dew point: 25 °F

Location of IncheonLocation

Historic Weather in Incheon — Graph

°F

Incheon temperature yesterday

Maximum temperature yesterday: 43 °F (at 1:00 PM)
Minimum temperature yesterday: 25 °F (at 7:00 AM)
Average temperature yesterday: 34 °F

Past Weeks' High & Low Weather Summary

 TemperatureHumidityPressure
High48 °F (Feb 20, 3:30 PM)93% (Feb 20, 3:30 AM)30.42 "Hg (Feb 20, 3:30 AM)
Low23 °F (Feb 27, 7:00 AM)25% (Feb 27, 4:00 PM)29.80 "Hg (Mar 3, 2:30 PM)
Average35 °F58%30.16 "Hg
* Reported Midnight between Feb 19 and Feb 20 — Mar 7 12:30 AM, Incheon, Weather by CustomWeather, © 2015

Note: Actual official high and low records may vary slightly from our data, if they occured in-between our weather recording intervals... More about our weather records

Advertising

Incheon weather history for previous 24 hours

 ConditionsComfort  
Time TempWeatherWind HumidityBarometerVisibility
12:30 AM
Sat, Mar 7
30 °FClear.2 mph80%30.21 "Hg10 mi
12:00 AM32 °FClear.2 mph75%30.21 "Hg10 mi
11:30 PM
Fri, Mar 6
32 °FClear.5 mph75%30.21 "Hg10 mi
11:00 PM32 °FClear.5 mph75%30.21 "Hg10 mi
10:30 PM32 °FPassing clouds.3 mph69%30.21 "HgN/A
10:00 PM34 °FClear.7 mph65%30.21 "Hg10 mi
9:30 PM34 °FClear.7 mph65%30.21 "Hg10 mi
9:00 PM30 °FClear.7 mph69%30.21 "Hg10 mi
8:30 PM34 °FClear.6 mph65%30.21 "Hg10 mi
8:00 PM34 °FClear.8 mph65%30.21 "Hg10 mi
7:30 PM34 °FSunny.6 mph60%30.21 "Hg10 mi
7:00 PM36 °FSunny.8 mph60%30.21 "Hg10 mi
6:30 PM36 °FSunny.8 mph60%30.21 "Hg10 mi
6:00 PM37 °FSunny.10 mph56%30.18 "Hg10 mi
5:30 PM39 °FSunny.9 mph36%30.18 "Hg10 mi
5:00 PM39 °FSunny.9 mph30%30.18 "Hg10 mi
4:30 PM39 °FSunny.10 mph33%30.21 "Hg10 mi
4:00 PM41 °FSunny.10 mph31%30.21 "Hg10 mi
3:30 PM41 °FPassing clouds.10 mph33%30.21 "HgN/A
3:00 PM43 °FSunny.10 mph29%30.21 "Hg10 mi
2:30 PM43 °FPassing clouds.8 mph29%30.21 "HgN/A
2:00 PM43 °FPassing clouds.8 mph29%30.21 "HgN/A
1:30 PM43 °FPassing clouds.8 mph31%30.24 "HgN/A
1:00 PM43 °FPassing clouds.8 mph34%30.24 "HgN/A
12:30 PM41 °FPassing clouds.7 mph28%30.27 "HgN/A
12:00 PM41 °FSunny.3 mph31%30.27 "Hg10 mi
11:30 AM39 °FSunny.3 mph33%30.27 "Hg10 mi
11:00 AM39 °FPassing clouds.6 mph36%30.30 "HgN/A
10:30 AM37 °FSunny.8 mph35%30.30 "Hg10 mi
10:00 AM37 °FSunny.3 mph35%30.30 "Hg10 mi
9:30 AM36 °FPassing clouds.6 mph44%30.30 "HgN/A
9:00 AM32 °FSunny.7 mph51%30.30 "Hg10 mi
8:30 AM30 °FSunny.7 mph59%30.30 "Hg10 mi
8:00 AM28 °FSunny.7 mph64%30.27 "Hg10 mi
7:30 AM27 °FClear.7 mph69%30.27 "Hg10 mi
7:00 AM25 °FClear.6 mph80%30.27 "Hg10 mi
6:30 AM27 °FClear.6 mph69%30.27 "Hg10 mi
5:30 AM27 °FClear.6 mph69%30.27 "Hg10 mi
5:00 AM27 °FClear.6 mph69%30.27 "Hg10 mi
4:30 AM27 °FClear.6 mph54%30.27 "Hg10 mi
4:00 AM27 °FClear.5 mph54%30.30 "Hg10 mi
3:30 AM28 °FClear.1 mph59%30.30 "Hg10 mi
3:00 AM28 °FClear.1 mph64%30.30 "Hg10 mi
2:30 AM28 °FClear.1 mph64%30.30 "Hg10 mi
2:00 AM28 °FClear.1 mph59%30.30 "Hg10 mi
1:30 AM28 °FClear.2 mph51%30.30 "Hg10 mi
1:00 AM30 °FClear.1 mph51%30.30 "Hg10 mi
Weather by CustomWeather, © 2015

See weather overviewHow to use our weather pages